Location: Bailleul
(50.3375°N, 2.8513°E)
Time: 20:29:43
(UTC+00:00)

Terra - Pass Details

Date: 29 July 2021
Orbit: 701 x 703 km, 98.2° (Epoch: 17 September)

Event Time Altitude Azimuth Distance (km) Brightness Sun altitude
Exits shadow 20:47:37 13° 131° (SE) 1,989 3.5 -9.7°
Maximum altitude 20:51:30 38° 66° (ENE) 1,071 2.6 -10.2°
Drops below altitude 10° 20:55:55 10° 359° (N) 2,185 5.1 -10.6°
Sets 20:58:17 0° 352° (N) 3,108 6.2 -10.9°
